• In Uzbekistan
  • List of Countries
  • For 7 days
  • Water Temperature
  • Satellite Maps
  • Weather Map
  • Weather Widgets
  • user-avatar
    Login

    Hourly Weather Dillenburg

    Today, 18 November, Saturday

    Time Temperature Precipitation Wind Pressure Humidity
    00:00 +2°C° 0 mm 1 mps 741 mmHg 92%
    01:00 +2°C° 0 mm 1 mps 741 mmHg 92%
    02:00 +2°C° 0 mm 1 mps 741 mmHg 93%
    03:00 +1°C° 0 mm 1 mps 740 mmHg 93%
    04:00 +1°C° 0 mm 1 mps 740 mmHg 93%
    05:00 +1°C° 0 mm 1 mps 740 mmHg 93%
    06:00 +1°C° 0 mm 1 mps 739 mmHg 93%
    07:00 +1°C° 0 mm 1 mps 739 mmHg 93%
    08:00 +1°C° 0 mm 2 mps 739 mmHg 89%
    09:00 +1°C° 0 mm 3 mps 739 mmHg 85%
    10:00 +2°C° 0 mm 3 mps 739 mmHg 81%
    11:00 +1°C° 0 mm 4 mps 738 mmHg 78%
    12:00 +3°C° 0 mm 4 mps 738 mmHg 75%
    13:00 +3°C° 0 mm 5 mps 737 mmHg 72%
    14:00 +3°C° 0 mm 5 mps 737 mmHg 73%
    15:00 +3°C° 0 mm 5 mps 736 mmHg 75%
    16:00 +2°C° 0 mm 5 mps 736 mmHg 77%
    17:00 +2°C° 0.3 mm 5 mps 736 mmHg 79%
    18:00 +2°C° 0.3 mm 5 mps 736 mmHg 81%
    19:00 +2°C° 0.3 mm 5 mps 736 mmHg 83%
    20:00 +2°C° 0.5 mm 5 mps 736 mmHg 85%
    21:00 +3°C° 0.5 mm 4 mps 736 mmHg 86%
    22:00 +3°C° 0.5 mm 3 mps 736 mmHg 88%
    23:00 +2°C° 0.1 mm 3 mps 736 mmHg 90%

    Tomorrow, 19 November, Sunday

    Time Temperature Precipitation Wind Pressure Humidity
    00:00 +2°C° 0.1 mm 3 mps 735 mmHg 91%
    01:00 +2°C° 0.1 mm 3 mps 735 mmHg 93%
    02:00 +1°C° 0 mm 3 mps 735 mmHg 93%
    03:00 +1°C° 0 mm 3 mps 735 mmHg 93%
    04:00 +1°C° 0 mm 3 mps 735 mmHg 92%
    05:00 0°C° 0 mm 3 mps 735 mmHg 91%
    06:00 0°C° 0 mm 3 mps 735 mmHg 90%
    07:00 0°C° 0 mm 3 mps 735 mmHg 89%
    08:00 0°C° 0 mm 4 mps 735 mmHg 86%
    09:00 +1°C° 0 mm 4 mps 736 mmHg 83%
    10:00 +2°C° 0 mm 5 mps 736 mmHg 80%
    11:00 +3°C° 0.1 mm 5 mps 736 mmHg 78%
    12:00 +3°C° 0.1 mm 5 mps 736 mmHg 76%
    13:00 +4°C° 0.1 mm 6 mps 736 mmHg 73%
    14:00 +5°C° 0.1 mm 5 mps 737 mmHg 75%
    15:00 +4°C° 0.1 mm 4 mps 737 mmHg 77%
    16:00 +4°C° 0.1 mm 4 mps 737 mmHg 79%
    17:00 +3°C° 0 mm 4 mps 737 mmHg 82%
    18:00 +3°C° 0 mm 4 mps 738 mmHg 85%
    19:00 +1°C° 0 mm 4 mps 738 mmHg 88%
    20:00 +2°C° 0 mm 3 mps 738 mmHg 89%
    21:00 +2°C° 0 mm 3 mps 738 mmHg 89%
    22:00 +2°C° 0 mm 3 mps 739 mmHg 90%
    23:00 +1°C° 0.1 mm 4 mps 739 mmHg 90%

    Day after tomorrow, 20 November, Monday

    Time Temperature Precipitation Wind Pressure Humidity
    00:00 +1°C° 0.1 mm 4 mps 739 mmHg 91%
    01:00 +1°C° 0.1 mm 4 mps 739 mmHg 91%
    02:00 +1°C° 0 mm 4 mps 739 mmHg 91%
    03:00 +1°C° 0 mm 4 mps 739 mmHg 90%
    04:00 +2°C° 0 mm 3 mps 739 mmHg 90%
    05:00 +2°C° 0 mm 3 mps 738 mmHg 89%
    06:00 +2°C° 0 mm 3 mps 738 mmHg 87%
    07:00 +1°C° 0 mm 3 mps 738 mmHg 86%
    08:00 +2°C° 0.2 mm 3 mps 738 mmHg 84%
    09:00 +1°C° 0.2 mm 4 mps 737 mmHg 82%
    10:00 +1°C° 0.2 mm 4 mps 737 mmHg 80%
    11:00 +1°C° 0.3 mm 4 mps 736 mmHg 81%
    12:00 +2°C° 0.3 mm 5 mps 736 mmHg 83%
    13:00 +3°C° 0.3 mm 5 mps 735 mmHg 85%
    14:00 +3°C° 0.4 mm 5 mps 734 mmHg 86%
    15:00 +4°C° 0.4 mm 6 mps 734 mmHg 87%
    16:00 +4°C° 0.4 mm 6 mps 733 mmHg 88%
    17:00 +5°C° 0.5 mm 6 mps 732 mmHg 89%
    18:00 +5°C° 0.5 mm 6 mps 732 mmHg 89%
    19:00 +5°C° 0.5 mm 6 mps 731 mmHg 89%
    20:00 +5°C° 2 mm 6 mps 731 mmHg 89%
    21:00 +5°C° 2 mm 6 mps 731 mmHg 89%
    22:00 +7°C° 2 mm 6 mps 731 mmHg 89%
    23:00 +7°C° 0.5 mm 6 mps 731 mmHg 90%

    21 November, Tuesday

    Time Temperature Precipitation Wind Pressure Humidity
    00:00 +7°C° 0.5 mm 6 mps 731 mmHg 90%
    01:00 +8°C° 0.5 mm 5 mps 731 mmHg 91%
    02:00 +8°C° 0.1 mm 5 mps 731 mmHg 91%
    03:00 +8°C° 0.1 mm 5 mps 731 mmHg 92%
    04:00 +8°C° 0.1 mm 4 mps 731 mmHg 92%
    05:00 +8°C° 0.1 mm 4 mps 731 mmHg 92%
    06:00 +8°C° 0.1 mm 4 mps 731 mmHg 92%
    07:00 +8°C° 0.1 mm 4 mps 731 mmHg 93%
    08:00 +8°C° 0.1 mm 4 mps 732 mmHg 92%
    09:00 +8°C° 0.1 mm 4 mps 732 mmHg 91%
    10:00 +8°C° 0.1 mm 4 mps 733 mmHg 91%
    11:00 +8°C° 0.1 mm 4 mps 733 mmHg 90%
    12:00 +10°C° 0.1 mm 4 mps 733 mmHg 89%
    13:00 +10°C° 0.1 mm 4 mps 733 mmHg 88%
    14:00 +10°C° 0.6 mm 4 mps 733 mmHg 90%
    15:00 +9°C° 0.6 mm 3 mps 733 mmHg 91%
    16:00 +9°C° 0.6 mm 3 mps 733 mmHg 93%
    17:00 +8°C° 0.1 mm 4 mps 733 mmHg 92%
    18:00 +7°C° 0.1 mm 4 mps 732 mmHg 91%
    19:00 +7°C° 0.1 mm 4 mps 732 mmHg 91%
    20:00 +6°C° 0 mm 4 mps 733 mmHg 91%
    21:00 +6°C° 0 mm 4 mps 733 mmHg 91%
    22:00 +5°C° 0 mm 4 mps 733 mmHg 91%
    23:00 +5°C° 0 mm 4 mps 733 mmHg 91%

    22 November, Wednesday

    Time Temperature Precipitation Wind Pressure Humidity
    00:00 +5°C° 0 mm 4 mps 733 mmHg 91%
    01:00 +6°C° 0 mm 4 mps 733 mmHg 91%
    02:00 +6°C° 0 mm 4 mps 733 mmHg 91%
    03:00 +7°C° 0 mm 3 mps 733 mmHg 91%
    04:00 +7°C° 0 mm 3 mps 733 mmHg 91%
    05:00 +7°C° 0 mm 3 mps 733 mmHg 90%
    06:00 +7°C° 0 mm 3 mps 733 mmHg 90%
    07:00 +7°C° 0 mm 3 mps 733 mmHg 90%
    08:00 +7°C° 0 mm 3 mps 733 mmHg 89%
    09:00 +6°C° 0 mm 4 mps 734 mmHg 88%
    10:00 +7°C° 0 mm 4 mps 734 mmHg 87%
    11:00 +7°C° 0 mm 4 mps 734 mmHg 86%
    12:00 +8°C° 0 mm 3 mps 734 mmHg 84%
    13:00 +9°C° 0 mm 3 mps 733 mmHg 82%
    14:00 +8°C° 0 mm 3 mps 733 mmHg 84%
    15:00 +8°C° 0 mm 2 mps 733 mmHg 86%
    16:00 +8°C° 0 mm 2 mps 732 mmHg 88%
    17:00 +7°C° 0 mm 2 mps 732 mmHg 90%
    18:00 +6°C° 0 mm 2 mps 732 mmHg 92%
    19:00 +5°C° 0 mm 2 mps 732 mmHg 93%
    20:00 +5°C° 0 mm 2 mps 732 mmHg 93%
    21:00 +5°C° 0 mm 2 mps 732 mmHg 92%
    22:00 +5°C° 0 mm 2 mps 732 mmHg 92%
    23:00 +4°C° 0 mm 2 mps 731 mmHg 91%

    23 November, Thursday

    Time Temperature Precipitation Wind Pressure Humidity
    00:00 +4°C° 0 mm 2 mps 731 mmHg 90%
    01:00 +4°C° 0 mm 2 mps 731 mmHg 89%
    02:00 +4°C° 0 mm 2 mps 730 mmHg 88%
    03:00 +3°C° 0 mm 3 mps 730 mmHg 87%
    04:00 +4°C° 0 mm 3 mps 730 mmHg 86%
    05:00 +4°C° 0 mm 3 mps 730 mmHg 87%
    06:00 +4°C° 0 mm 4 mps 729 mmHg 87%
    07:00 +5°C° 0 mm 4 mps 729 mmHg 88%
    08:00 +6°C° 0 mm 4 mps 730 mmHg 85%
    09:00 +7°C° 0 mm 5 mps 730 mmHg 81%
    10:00 +8°C° 0 mm 6 mps 730 mmHg 78%
    11:00 +9°C° 0 mm 6 mps 730 mmHg 76%
    12:00 +10°C° 0 mm 6 mps 730 mmHg 73%
    13:00 +11°C° 0 mm 6 mps 730 mmHg 71%
    14:00 +11°C° 0 mm 6 mps 730 mmHg 74%
    15:00 +12°C° 0 mm 5 mps 730 mmHg 76%
    16:00 +11°C° 0 mm 4 mps 731 mmHg 79%
    17:00 +11°C° 0 mm 4 mps 731 mmHg 80%
    18:00 +11°C° 0 mm 4 mps 731 mmHg 81%
    19:00 +10°C° 0 mm 4 mps 732 mmHg 82%
    20:00 +10°C° 0 mm 4 mps 732 mmHg 82%
    21:00 +11°C° 0 mm 4 mps 733 mmHg 81%
    22:00 +11°C° 0 mm 4 mps 733 mmHg 81%
    23:00 +10°C° 0 mm 4 mps 733 mmHg 83%
    Show more